User: anonymous   Login
Location: Fort Wayne
(41.1310°N, 85.1290°W)
Time: 21:52:33
(UTC-04:00)
Language:

Meteor 2-9 Rocket - Orbit

View from above orbital plane
View from above orbital plane
View from above satellite
View from above satellite

Ground track
Ground track

The orbit data is extracted from the following two-line orbital elements,

1 13719U 82116B   16270.48038294 -.00000012  00000-0 -12550-4 0  9995
2 13719  81.2519 258.6916 0072244  25.8468  88.4758 14.14588606743083
Epoch (UTC): 26 September 2016 11:31:45
Eccentricity: 0.0072244
inclination: 81.2519°
perigee height: 791 km
apogee height: 896 km
right ascension of ascending node: 258.6916°
argument of perigee: 25.8468°
revolutions per day: 14.14588606
mean anomaly at epoch: 88.4758°
orbit number at epoch: 74308

The dashed part of the orbit path shows where the satellite is in the earth's shadow,  

DLR